Precipitable_Water
0.81 0.80 0.86 0.94 1.08 1.03 0.87 0.82 0.88 0.88 1.01 1.10 1.15 1.19 1.17 1.10 1.05 1.07 1.01 1.02 0.98 0.88
0.84 0.82 0.79 0.80 0.82 0.83 0.88 0.90 0.84 0.85 0.85 0.93 1.02 1.10 1.07 1.08 1.11 1.04 1.04 1.03 0.98 0.89
0.67 0.74 0.78 0.84 0.88 0.90 0.88 0.86 0.86 0.85 0.85 0.86 0.89 0.97 1.01 1.03 0.97 1.03 1.02 1.03 0.99 0.90
0.61 0.65 0.66 0.68 0.69 0.78 0.83 0.86 0.83 0.82 0.88 0.91 0.89 0.88 0.92 0.98 1.03 0.91 0.95 1.00 0.98 0.91
0.62 0.65 0.66 0.67 0.66 0.70 0.67 0.72 0.76 0.79 0.79 0.87 0.96 0.98 0.91 0.97 0.95 0.95 0.91 0.94 0.95 0.92
0.61 0.62 0.64 0.69 0.71 0.73 0.73 0.73 0.74 0.75 0.75 0.79 0.84 0.90 0.99 0.94 0.98 0.92 0.97 0.93 0.92 0.89
0.55 0.58 0.63 0.68 0.74 0.75 0.77 0.75 0.74 0.76 0.76 0.76 0.78 0.88 0.94 0.93 0.96 0.97 0.92 0.94 0.90 0.88
0.50 0.54 0.61 0.62 0.66 0.70 0.74 0.72 0.71 0.74 0.77 0.79 0.78 0.82 0.86 0.86 0.90 0.88 0.89 0.89 0.91 0.87
0.47 0.52 0.52 0.56 0.59 0.62 0.65 0.67 0.70 0.69 0.72 0.76 0.79 0.82 0.82 0.86 0.81 0.84 0.83 0.81 0.82 0.83
0.47 0.51 0.55 0.60 0.61 0.62 0.61 0.65 0.68 0.70 0.70 0.69 0.73 0.78 0.80 0.82 0.78 0.76 0.76 0.75 0.75 0.78
0.45 0.52 0.57 0.57 0.58 0.58 0.61 0.62 0.65 0.67 0.68 0.67 0.69 0.76 0.77 0.78 0.77 0.75 0.73 0.74 0.76 0.75
0.45 0.52 0.57 0.57 0.54 0.56 0.58 0.59 0.61 0.62 0.64 0.66 0.66 0.68 0.72 0.73 0.70 0.69 0.69 0.71 0.72 0.72
0.44 0.50 0.53 0.56 0.56 0.56 0.56 0.56 0.58 0.59 0.62 0.63 0.63 0.67 0.65 0.68 0.66 0.62 0.64 0.66 0.67 0.68
0.43 0.48 0.53 0.56 0.55 0.54 0.54 0.55 0.55 0.56 0.58 0.59 0.61 0.61 0.62 0.63 0.62 0.60 0.60 0.59 0.61 0.63
Wind_Speed
42 42 41 41 39 39 39 40 40 39 42 44 45 45 42 43 41 41 40 39 38 36
50 49 48 47 46 44 44 44 44 45 44 43 44 45 44 42 42 43 43 42 41 39
50 52 51 52 53 52 50 49 49 50 49 49 48 46 46 46 44 45 44 44 43 41
46 49 52 55 56 58 58 56 55 54 54 54 53 52 51 49 48 45 46 45 44 43
42 43 44 48 51 54 56 57 57 56 55 56 55 55 54 53 52 49 47 46 43 44
29 33 36 39 42 45 49 51 53 54 57 57 58 57 56 56 53 54 49 47 46 46
22 24 27 31 36 39 42 44 48 51 52 55 57 57 55 55 54 51 52 50 50 47
25 27 28 29 29 31 35 36 36 40 45 48 51 54 52 54 51 51 50 50 46 47
24 27 31 33 35 35 34 35 35 34 36 39 42 48 49 46 49 51 50 48 46 46
25 28 32 32 35 38 36 33 33 32 33 35 37 39 43 45 42 46 47 46 45 44
26 28 26 21 18 21 27 28 29 29 29 30 35 35 37 36 35 38 44 45 45 41
26 26 21 14 11 11 16 20 23 25 25 28 28 33 37 34 33 31 33 39 41 41
24 22 19 12 9 10 13 17 19 20 22 23 25 28 34 32 33 33 34 35 34 37
22 20 17 12 8 7 12 15 17 19 21 23 24 26 30 30 31 32 32 33 31 31
Wind_Direction
259 258 258 259 257 256 256 253 252 251 248 246 243 239 238 233 235 231 233 234 235 235
259 257 256 258 256 256 256 255 253 252 250 248 244 242 240 239 236 234 234 235 234 234
260 258 257 257 254 254 255 256 254 252 250 247 244 243 241 240 239 237 236 235 232 233
265 262 260 257 255 254 255 256 255 251 248 245 243 242 241 239 239 239 237 234 234 233
267 265 263 260 257 255 253 253 253 251 248 244 241 240 239 238 238 238 237 234 235 235
272 268 264 261 258 257 253 252 251 251 248 244 241 239 237 236 236 236 235 236 233 235
281 278 271 267 262 257 253 250 252 249 248 244 239 237 235 235 233 232 233 234 236 234
289 283 279 272 269 258 251 251 250 247 244 240 236 233 231 232 231 230 231 230 232 231
300 294 287 275 266 260 254 250 245 243 239 235 232 229 229 227 226 227 228 228 228 227
312 306 300 285 269 255 248 246 238 238 234 231 228 224 222 222 225 223 224 224 220 217
321 318 314 302 277 251 238 235 232 230 229 226 221 216 213 216 217 220 218 215 215 217
327 328 324 306 288 257 229 222 220 223 223 219 215 213 212 212 211 208 206 207 208 213
332 334 338 314 293 252 225 219 219 218 212 206 205 203 205 208 207 205 205 206 212 212
335 337 343 336 316 262 226 219 215 209 205 203 204 203 199 200 199 202 196 198 194 193